This demonstration page uses our WeatherBlox Daily Observations layout. Learn more.

39.92423, -83.80882

Hourly Observations for May 5, 2019

Temp ( °F °C ) Dew Point ( °F °C ) Humidity (%) Winds ( mph kmh ) Pressure ( in mb ) Visibility ( mi km ) Precip ( " mm )
12:56 am 00:56 Cloudy 51 10.6 51 10.6 100 100 NNE 6 9 29.88 1012 9 14.48406 0 0
1:56 am 01:56 Cloudy 51 10.6 50 10 96 96 NNE 9 15 29.86 1011 9 14.48406 0 0
2:56 am 02:56 Cloudy 50 10 49 9.4 96 96 NE 12 19 29.85 1011 10 16.0934 0 0
3:56 am 03:56 Cloudy 50 10 49 9.4 96 96 NNE 9 15 29.84 1011 10 16.0934 0.01 0.254
4:56 am 04:56 Cloudy 50 10 49 9.4 96 96 NNE 8 13 29.84 1010 10 16.0934 0 0
5:56 am 05:56 Cloudy 50 10 50 10 100 100 NNE 7 11 29.83 1010 10 16.0934 0 0
6:34 am 06:34 Cloudy 50 10 50 10 100 100 N 6 9 29.83 1010 10 16.0934 0 0
6:56 am 06:56 Cloudy 50 10 50 10 100 100 N 6 9 29.84 1010 10 16.0934 0 0
7:35 am 07:35 Partly Cloudy 48 9 48 9 100 100 N 8 13 29.85 1011 10 16.0934 0 0
7:56 am 07:56 Sunny 49 9.4 49 9.4 100 100 N 6 9 29.85 1011 10 16.0934 0.01 0.254
8:23 am 08:23 Partly Cloudy 52 11 48 9 88 88 N 10 17 29.86 1011 10 16.0934 0 0
8:56 am 08:56 Mostly Cloudy 52 11.1 50 10 93 93 N 12 19 29.88 1012 10 16.0934 0 0
9:56 am 09:56 Cloudy 51 10.6 49 9.4 92 92 N 14 22 29.88 1012 10 16.0934 0 0
10:49 am 10:49 Cloudy 54 12 48 9 82 82 NNE 10 17 29.88 1012 10 16.0934 0 0
10:56 am 10:56 Cloudy 54 12.2 51 10.6 90 90 NNE 10 17 29.88 1012 10 16.0934 0 0
12:48 pm 12:48 Cloudy 57 14 52 11 82 82 N 13 20 29.9 1012 10 16.0934 0 0
12:56 pm 12:56 Cloudy 58 14.4 51 10.6 78 78 N 9 15 29.9 1013 10 16.0934 0 0
1:45 pm 13:45 Partly Cloudy 59 15 50 10 72 72 NNE 12 19 29.88 1012 10 16.0934 0 0
1:56 pm 13:56 Partly Cloudy 60 15.6 50 10 70 70 N 13 20 29.89 1012 10 16.0934 0 0
2:56 pm 14:56 Sunny 62 16.7 51 10.6 67 67 NNW 9 15 29.89 1012 10 16.0934 0 0
3:56 pm 15:56 Sunny 63 17.2 49 9.4 60 60 NNW 6 9 29.87 1012 10 16.0934 0.01 0.254
4:56 pm 16:56 Sunny 65 18.3 46 7.8 51 51 NW 7 11 29.87 1012 10 16.0934 0 0
5:56 pm 17:56 Sunny 65 18.3 46 7.8 51 51 NW 7 11 29.89 1012 10 16.0934 0 0
6:56 pm 18:56 Sunny 65 18.3 47 8.3 52 52 N 8 13 29.89 1012 10 16.0934 0 0
7:56 pm 19:56 Sunny 61 16.1 45 7.2 56 56 N 6 9 29.9 1013 10 16.0934 0.01 0.254
8:56 pm 20:56 Clear 60 15.6 46 7.8 60 60 Calm 29.91 1013 10 16.0934 0 0
9:56 pm 21:56 Clear 54 12.2 48 8.9 80 80 Calm 29.94 1014 10 16.0934 0.01 0.254
10:56 pm 22:56 Clear 54 12.2 48 8.9 80 80 Calm 29.96 1014 10 16.0934 0 0
11:56 pm 23:56 Clear 51 10.6 48 8.9 89 89 Calm 29.96 1015 10 16.0934 0.01 0.254

Powered by AerisWeather